Le nostre stazioni meteo in Italia

Pubblicità
Il mio iltempo24.it
Bologna/Borgo Panigale, Italia (16140): Temperatura & dewpoint: 15.04.2019 09:00:00 - 21.04.2019 09:00:00 (CEST)Bologna/Borgo Panigale, Italia (16140): velocità del vento: 15.04.2019 09:00:00 - 21.04.2019 09:00:00 (CEST)Bologna/Borgo Panigale, Italia (16140): direzione del vento: 15.04.2019 09:00:00 - 21.04.2019 09:00:00 (CEST)Bologna/Borgo Panigale, Italia (16140): reduced air pressure: 15.04.2019 09:00:00 - 21.04.2019 09:00:00 (CEST)Bologna/Borgo Panigale, Italia (16140): visibility: 15.04.2019 09:00:00 - 21.04.2019 09:00:00 (CEST)Bologna/Borgo Panigale, Italia (16140): precipitazioni: 15.04.2019 09:00:00 - 21.04.2019 09:00:00 (CEST)
Data & Tempo tt [°C] td [°C] ff [km/h] ff [kn] dd ppp [hPa] vv [km] rr [mm]
21.04.2019 09:00:00 12,0 6,0 8 4 SO - 10 -
21.04.2019 08:00:00 11,1 5,3 8 4 SSO 1022,3 10 -
21.04.2019 07:00:00 10,0 5,0 11 6 SSO - 10 -
21.04.2019 06:00:00 10,0 5,0 5 3 SO - 10 -
21.04.2019 05:00:00 9,8 5,0 9 5 SO 1023,0 10 0,0
21.04.2019 04:00:00 11,0 5,0 8 4 SSO - 10 -
21.04.2019 03:00:00 11,0 5,0 8 4 SO - 10 -
21.04.2019 02:00:00 10,9 5,7 5 3 SSO 1024,0 10 -
21.04.2019 01:00:00 11,0 6,0 5 3 SSO - 10 -
21.04.2019 00:00:00 12,0 6,0 2 1 - - 10 -
20.04.2019 23:00:00 14,6 5,7 5 3 E 1024,2 10 0,0
20.04.2019 22:00:00 16,0 6,0 8 4 E - 10 -
20.04.2019 21:00:00 16,0 5,0 9 5 E - 10 -
20.04.2019 20:00:00 18,7 4,5 9 5 E 1023,9 10 -
20.04.2019 19:00:00 20,0 5,0 11 6 E - 10 -
20.04.2019 18:00:00 22,0 5,0 13 7 E - 10 -
20.04.2019 17:00:00 22,2 4,5 16 9 E 1024,4 10 0,0
20.04.2019 16:00:00 22,0 7,0 9 5 E - 10 -
20.04.2019 15:00:00 22,0 7,0 15 8 ENE - 10 -
20.04.2019 14:00:00 20,8 4,2 8 4 - 1026,6 10 -
20.04.2019 13:00:00 20,0 7,0 5 3 - - 10 -
20.04.2019 12:00:00 18,0 4,0 5 3 - - 10 -
20.04.2019 11:00:00 17,3 7,7 8 4 - 1028,0 10 0,0
20.04.2019 10:00:00 15,0 6,0 8 4 ONO - 10 -
20.04.2019 09:00:00 12,0 6,0 8 4 SO - 10 -
20.04.2019 08:00:00 9,9 4,7 15 8 SSO 1027,9 10 -
20.04.2019 07:00:00 8,0 4,0 13 7 SSO - 10 -
20.04.2019 06:00:00 8,0 4,0 13 7 SSO - 10 -
20.04.2019 05:00:00 8,1 4,6 13 7 SSO 1027,5 10 0,0
20.04.2019 04:00:00 9,0 5,0 13 7 SSO - 10 -
20.04.2019 03:00:00 9,0 5,0 9 5 SSO - 10 -
20.04.2019 02:00:00 9,8 5,1 8 4 SSO 1028,2 10 -
20.04.2019 01:00:00 11,0 5,0 11 6 SSO - 10 -
20.04.2019 00:00:00 11,0 6,0 8 4 SSO - 10 -
19.04.2019 23:00:00 13,3 5,6 8 4 SSO 1028,1 10 0,0
19.04.2019 22:00:00 14,0 5,0 8 4 ESE - 10 -
19.04.2019 21:00:00 16,0 5,0 9 5 E - 10 -
19.04.2019 20:00:00 17,8 4,9 9 5 E 1027,4 10 -
19.04.2019 19:00:00 20,0 5,0 8 4 E - 10 -
19.04.2019 18:00:00 20,0 5,0 11 6 E - 10 -
19.04.2019 17:00:00 20,3 5,0 8 4 E 1027,9 10 0,0
19.04.2019 16:00:00 20,0 7,0 11 6 ESE - 10 -
19.04.2019 15:00:00 20,0 6,0 8 4 ENE - 10 -
19.04.2019 14:00:00 19,5 7,4 11 6 ENE 1029,4 10 -
19.04.2019 13:00:00 19,0 8,0 9 5 - - 10 -
19.04.2019 12:00:00 17,0 8,0 8 4 NNO - 10 -
19.04.2019 11:00:00 15,7 7,6 5 3 - 1030,5 10 0,0
19.04.2019 10:00:00 14,0 7,0 8 4 ONO - 10 -
19.04.2019 09:00:00 12,0 6,0 5 3 SSO - 10 -
19.04.2019 08:00:00 9,1 4,7 8 4 SO 1029,5 10 -
19.04.2019 07:00:00 8,0 4,0 9 5 SSO - 10 -
19.04.2019 06:00:00 7,0 4,0 9 5 SO - 10 -
19.04.2019 05:00:00 7,7 3,9 5 3 SO 1028,4 10 0,0
19.04.2019 04:00:00 8,0 4,0 4 2 - - 10 -
19.04.2019 03:00:00 8,0 5,0 5 3 SSO - 10 -
19.04.2019 02:00:00 9,1 4,5 5 3 SO 1028,0 10 -
19.04.2019 01:00:00 10,0 5,0 2 1 - - 10 -
19.04.2019 00:00:00 10,0 5,0 4 2 ESE - 10 -
18.04.2019 23:00:00 11,1 4,1 2 1 - 1026,5 10 0,0
18.04.2019 22:00:00 13,0 5,0 9 5 ESE - 10 -
18.04.2019 21:00:00 15,0 5,0 13 7 E - 10 -
18.04.2019 20:00:00 16,3 4,7 15 8 E 1025,0 10 -
18.04.2019 19:00:00 18,0 4,0 18 10 E - 10 -
18.04.2019 18:00:00 20,0 5,0 16 9 E - 10 -
18.04.2019 17:00:00 19,8 4,7 18 10 E 1024,3 10 0,0
18.04.2019 16:00:00 20,0 5,0 16 9 E - 10 -
18.04.2019 15:00:00 20,0 6,0 16 9 ESE - 10 -
18.04.2019 14:00:00 19,8 6,5 13 7 ESE 1024,6 10 -
18.04.2019 13:00:00 19,0 7,0 13 7 ENE - 10 -
18.04.2019 12:00:00 18,0 6,0 13 7 E - 10 -
18.04.2019 11:00:00 16,4 7,0 15 8 E 1025,1 10 0,0
18.04.2019 10:00:00 15,0 7,0 5 3 ENE - 10 -
18.04.2019 09:00:00 13,0 6,0 4 2 - - 10 -
18.04.2019 08:00:00 10,2 5,3 5 3 SSO 1024,4 10 -
18.04.2019 07:00:00 7,0 4,0 5 3 S - 10 -
18.04.2019 06:00:00 8,0 4,0 4 2 - - 10 -
18.04.2019 05:00:00 10,0 5,0 8 4 SSE - 10 -
18.04.2019 04:00:00 10,0 5,0 8 4 SSO - 10 -
18.04.2019 03:00:00 11,0 5,0 8 4 SSO - 10 -
18.04.2019 02:00:00 11,0 4,7 2 1 - 1022,5 10 -
18.04.2019 01:00:00 11,0 5,0 9 5 SSO - 10 -
18.04.2019 00:00:00 12,0 6,0 13 7 SSO - 10 -
17.04.2019 23:00:00 12,7 5,9 9 5 S 1021,3 10 0,0
17.04.2019 22:00:00 15,0 6,0 4 2 SSO - 10 -
17.04.2019 21:00:00 13,0 6,0 5 3 E - 10 -
17.04.2019 20:00:00 16,7 4,7 4 2 ENE 1019,5 10 -
17.04.2019 19:00:00 20,0 3,0 8 4 NE - 10 -
17.04.2019 18:00:00 21,0 6,0 4 2 - - 10 -
17.04.2019 17:00:00 20,7 4,4 9 5 NNE 1019,6 10 0,0
17.04.2019 16:00:00 20,0 5,0 11 6 NNE - 10 -
17.04.2019 15:00:00 20,0 5,0 13 7 NE - 10 -
17.04.2019 14:00:00 19,5 5,9 8 4 - 1020,4 10 -
17.04.2019 13:00:00 19,0 6,0 8 4 NO - 10 -
17.04.2019 12:00:00 18,0 8,0 8 4 NO - 10 -
17.04.2019 11:00:00 17,0 7,3 9 5 NO 1021,1 10 0,0
17.04.2019 10:00:00 15,0 8,0 5 3 OSO - 10 -
17.04.2019 09:00:00 12,0 6,0 8 4 SO - 10 -
17.04.2019 08:00:00 10,7 5,8 13 7 SSO 1020,7 10 -
17.04.2019 07:00:00 9,0 5,0 13 7 SSO - 10 -
17.04.2019 06:00:00 9,0 5,0 13 7 SSO - 10 -
17.04.2019 05:00:00 8,9 5,3 11 6 SSO 1019,9 10 0,0
17.04.2019 04:00:00 10,0 5,0 13 7 SSO - 10 -
17.04.2019 03:00:00 10,0 6,0 11 6 SSO - 10 -
17.04.2019 02:00:00 10,1 5,6 9 5 SSO 1019,9 10 -
17.04.2019 01:00:00 11,0 5,0 13 7 SSO - 10 -
17.04.2019 00:00:00 11,0 5,0 9 5 SSO - 10 -
16.04.2019 23:00:00 12,8 4,8 4 2 - 1019,6 10 0,0
16.04.2019 22:00:00 11,0 4,0 8 4 SE - 10 -
16.04.2019 21:00:00 13,0 4,0 13 7 ESE - 10 -
16.04.2019 20:00:00 14,8 3,9 16 9 ESE 1018,7 10 -
16.04.2019 19:00:00 18,0 5,0 18 10 E - 10 -
16.04.2019 18:00:00 18,0 4,0 13 7 E - 10 -
16.04.2019 17:00:00 18,9 4,8 13 7 E 1018,0 10 0,0
16.04.2019 16:00:00 19,0 4,0 13 7 E - 10 -
16.04.2019 15:00:00 19,0 5,0 13 7 E - 10 -
16.04.2019 14:00:00 18,4 5,6 13 7 E 1019,1 10 -
16.04.2019 13:00:00 18,0 6,0 11 6 ENE - 10 -
16.04.2019 12:00:00 17,0 8,0 5 3 - - 10 -
16.04.2019 11:00:00 15,2 7,3 4 2 - 1020,3 10 0,0
16.04.2019 10:00:00 13,0 6,0 8 4 S - 10 -
16.04.2019 09:00:00 10,0 5,0 13 7 S - 10 -
16.04.2019 08:00:00 8,3 4,5 15 8 SSO 1020,2 10 -
16.04.2019 07:00:00 7,0 4,0 13 7 SSO - 10 -
16.04.2019 06:00:00 7,0 4,0 13 7 SSO - 10 -
16.04.2019 05:00:00 7,0 4,5 13 7 SSO 1019,5 10 0,0
16.04.2019 04:00:00 - - - - - - - -
16.04.2019 03:00:00 8,0 5,0 11 6 SSO - 10 -
16.04.2019 02:00:00 8,3 5,5 13 7 SSO 1020,2 10 -
16.04.2019 01:00:00 9,0 6,0 16 9 SSO - 10 -
16.04.2019 00:00:00 9,0 6,0 11 6 SSO - 10 -
15.04.2019 23:00:00 9,8 6,8 11 6 SSO 1019,8 10 0,0
15.04.2019 22:00:00 11,0 7,0 11 6 SSO - 10 -
15.04.2019 21:00:00 11,0 4,0 2 1 S - 10 -
15.04.2019 20:00:00 12,9 5,4 9 5 ESE 1019,0 10 -
15.04.2019 19:00:00 17,0 5,0 8 4 NE - 10 -
15.04.2019 18:00:00 17,0 5,0 11 6 NNE - 10 -
15.04.2019 17:00:00 17,1 6,3 9 5 N 1018,8 10 0,0
15.04.2019 16:00:00 17,0 6,0 5 3 ENE - 10 -
15.04.2019 15:00:00 15,0 7,0 8 4 NNE - 10 -
15.04.2019 14:00:00 15,3 6,8 11 6 N 1019,9 10 -
15.04.2019 13:00:00 16,0 7,0 11 6 NNE - 10 -
15.04.2019 12:00:00 14,0 7,0 9 5 N - 10 -
15.04.2019 11:00:00 13,0 7,0 11 6 NNO - 10 -
15.04.2019 10:00:00 11,0 8,0 13 7 ONO - 8 -
15.04.2019 09:00:00 10,0 8,0 13 7 ONO - 7 -

tt = Temperatura
td = dewpoint
ff = velocità del vento
dd = direzione del vento
ppp = reduced air pressure
vv = visibility
rr = precipitazioni

Stazioni seguenti

WeatherPro
AMSI
MeteoEarth